BEL2729 EBBR-LSZH

Flight info

Callsign BEL2729
Flight time 0h 48m
Altitude 31000
Route ROUSY DCT GTQ DCT BAMEV DCT BLM
Aircraft A319/M-SDE3FGHIRWY/LB1

Departure

Time 2026-05-04 05:17
Airport Brussels Airport (EBBR)

Arrival

Time 2026-05-04 06:05
Airport Zürich Airport (LSZH)
Time Latitude Longitude Altitude Speed Heading
2026-05-04 05:03 50.90327 4.48315 120 ft 0 kts 155°
2026-05-04 05:10 50.90345 4.48303 119 ft 4 kts 153°
2026-05-04 05:10 50.90368 4.48283 121 ft 4 kts 148°
2026-05-04 05:11 50.90390 4.48257 118 ft 4 kts 130°
2026-05-04 05:11 50.90399 4.48226 121 ft 3 kts 71°
2026-05-04 05:11 50.90398 4.48221 121 ft 0 kts 65°
2026-05-04 05:13 50.90405 4.48244 118 ft 9 kts 65°
2026-05-04 05:13 50.90441 4.48369 120 ft 14 kts 65°
2026-05-04 05:13 50.90484 4.48517 117 ft 17 kts 65°
2026-05-04 05:13 50.90535 4.48695 119 ft 19 kts 65°
2026-05-04 05:14 50.90591 4.48889 120 ft 20 kts 65°
2026-05-04 05:14 50.90650 4.49093 119 ft 21 kts 65°
2026-05-04 05:14 50.90710 4.49302 123 ft 21 kts 65°
2026-05-04 05:14 50.90772 4.49515 121 ft 21 kts 65°
2026-05-04 05:15 50.90834 4.49705 123 ft 18 kts 50°
2026-05-04 05:15 50.90942 4.49821 120 ft 19 kts 34°
2026-05-04 05:15 50.91065 4.49935 119 ft 18 kts 20°
2026-05-04 05:15 50.91123 4.49829 116 ft 16 kts 244°
2026-05-04 05:16 50.91115 4.49801 118 ft 0 kts 245°
2026-05-04 05:16 50.91087 4.49703 120 ft 41 kts 245°
2026-05-04 05:16 50.90844 4.48868 120 ft 122 kts 245°
2026-05-04 05:16 50.90422 4.47415 383 ft 158 kts 244°
2026-05-04 05:17 50.89953 4.45804 1113 ft 161 kts 245°
2026-05-04 05:17 50.89472 4.44208 1924 ft 162 kts 237°
2026-05-04 05:17 50.88599 4.42986 2434 ft 180 kts 204°
2026-05-04 05:17 50.87276 4.42822 2881 ft 209 kts 165°
2026-05-04 05:18 50.86386 4.43615 3223 ft 229 kts 140°
2026-05-04 05:18 50.84826 4.46199 4043 ft 260 kts 133°
2026-05-04 05:18 50.83999 4.47667 4661 ft 267 kts 133°
2026-05-04 05:18 50.82757 4.49898 5679 ft 273 kts 134°
2026-05-04 05:19 50.81494 4.52203 6693 ft 280 kts 133°
2026-05-04 05:19 50.80217 4.54561 7710 ft 285 kts 133°
2026-05-04 05:19 50.78911 4.56960 8705 ft 290 kts 134°
2026-05-04 05:19 50.77580 4.59389 9686 ft 294 kts 134°
2026-05-04 05:20 50.76231 4.61834 10442 ft 308 kts 135°
2026-05-04 05:20 50.74760 4.64473 10847 ft 332 kts 135°
2026-05-04 05:20 50.73191 4.67289 11397 ft 348 kts 135°
2026-05-04 05:20 50.71580 4.70185 12208 ft 353 kts 135°
2026-05-04 05:21 50.70054 4.73259 13046 ft 361 kts 126°
2026-05-04 05:21 50.68907 4.76829 13841 ft 370 kts 114°
2026-05-04 05:21 50.68153 4.80753 14618 ft 376 kts 108°
2026-05-04 05:21 50.67440 4.84749 15376 ft 381 kts 109°
2026-05-04 05:22 50.66577 4.88705 16108 ft 382 kts 117°
2026-05-04 05:22 50.65269 4.92351 16820 ft 382 kts 128°
2026-05-04 05:22 50.63560 4.95548 17517 ft 382 kts 139°
2026-05-04 05:22 50.61645 4.98485 18212 ft 386 kts 139°
2026-05-04 05:23 50.59718 5.01454 18901 ft 389 kts 139°
2026-05-04 05:23 50.57778 5.04460 19586 ft 393 kts 139°
2026-05-04 05:23 50.55826 5.07494 20263 ft 396 kts 139°
2026-05-04 05:23 50.53859 5.10551 20918 ft 400 kts 140°
2026-05-04 05:24 50.51866 5.13632 21558 ft 402 kts 140°
2026-05-04 05:24 50.49884 5.16684 22161 ft 405 kts 140°
2026-05-04 05:24 50.47861 5.19799 22740 ft 408 kts 140°
2026-05-04 05:24 50.45823 5.22929 23293 ft 412 kts 140°
2026-05-04 05:25 50.43769 5.26076 23834 ft 414 kts 140°
2026-05-04 05:25 50.41701 5.29248 24363 ft 417 kts 140°
2026-05-04 05:25 50.39617 5.32443 24845 ft 420 kts 141°
2026-05-04 05:25 50.37510 5.35664 25302 ft 424 kts 141°
2026-05-04 05:26 50.35386 5.38900 25748 ft 428 kts 141°
2026-05-04 05:26 50.33237 5.42168 26199 ft 431 kts 141°
2026-05-04 05:26 50.31078 5.45456 26621 ft 435 kts 141°
2026-05-04 05:26 50.28930 5.48728 27026 ft 438 kts 141°
2026-05-04 05:27 50.26734 5.52070 27449 ft 442 kts 141°
2026-05-04 05:28 50.10901 5.75966 30000 ft 463 kts 142°
2026-05-04 05:29 50.08352 5.79106 30321 ft 459 kts 151°
2026-05-04 05:29 50.05636 5.81543 30650 ft 455 kts 160°
2026-05-04 05:29 50.02706 5.83357 30925 ft 450 kts 167°
2026-05-04 05:29 49.99750 5.84886 30993 ft 442 kts 167°
2026-05-04 05:31 49.76824 5.96642 30997 ft 433 kts 167°
2026-05-04 05:32 49.71110 5.99576 31002 ft 432 kts 167°
2026-05-04 05:33 49.62578 6.03927 31000 ft 432 kts 167°
2026-05-04 05:33 49.56869 6.06820 31002 ft 431 kts 167°
2026-05-04 05:34 49.51165 6.09711 30991 ft 431 kts 167°
2026-05-04 05:34 49.45749 6.13888 30986 ft 443 kts 149°
2026-05-04 05:35 49.40928 6.19839 30985 ft 445 kts 146°
2026-05-04 05:35 49.36142 6.25762 30989 ft 444 kts 146°
2026-05-04 05:36 49.31321 6.31704 30993 ft 444 kts 146°
2026-05-04 05:36 49.26489 6.37654 31004 ft 444 kts 146°
2026-05-04 05:37 49.21665 6.43561 31001 ft 444 kts 146°
2026-05-04 05:37 49.16839 6.49465 30998 ft 444 kts 146°
2026-05-04 05:38 49.09631 6.58281 31003 ft 444 kts 146°
2026-05-04 05:38 49.04796 6.64160 31005 ft 444 kts 146°
2026-05-04 05:39 48.97310 6.72309 31008 ft 435 kts 159°
2026-05-04 05:40 48.88916 6.77392 31015 ft 432 kts 163°
2026-05-04 05:40 48.83344 6.80696 31019 ft 432 kts 163°
2026-05-04 05:41 48.77737 6.84007 31018 ft 432 kts 163°
2026-05-04 05:41 48.72120 6.87313 31017 ft 432 kts 163°
2026-05-04 05:42 48.66512 6.90619 31017 ft 433 kts 163°
2026-05-04 05:42 48.60896 6.93918 31019 ft 433 kts 163°
2026-05-04 05:43 48.55312 6.97178 31019 ft 433 kts 163°
2026-05-04 05:45 48.32810 7.10266 31012 ft 433 kts 163°
2026-05-04 05:47 48.10284 7.23250 31001 ft 435 kts 163°
2026-05-04 05:47 48.04610 7.26505 30411 ft 436 kts 163°
2026-05-04 05:48 48.01786 7.28124 29701 ft 433 kts 163°
2026-05-04 05:48 47.99006 7.29716 28991 ft 430 kts 163°
2026-05-04 05:48 47.96218 7.31307 28251 ft 429 kts 163°
2026-05-04 05:48 47.93431 7.32892 27503 ft 427 kts 163°
2026-05-04 05:49 47.90665 7.34464 26777 ft 424 kts 162°
2026-05-04 05:49 47.87913 7.36027 26049 ft 422 kts 162°
2026-05-04 05:49 47.85172 7.37582 25340 ft 418 kts 162°
2026-05-04 05:49 47.82463 7.39117 24634 ft 415 kts 162°
2026-05-04 05:51 47.64592 7.50892 20112 ft 399 kts 139°
2026-05-04 05:51 47.62803 7.54064 19548 ft 402 kts 127°
2026-05-04 05:52 47.61492 7.57730 18989 ft 403 kts 114°
2026-05-04 05:52 47.60559 7.61643 18428 ft 401 kts 112°
2026-05-04 05:52 47.59649 7.65531 17871 ft 398 kts 112°
2026-05-04 05:52 47.58742 7.69383 17325 ft 394 kts 112°
2026-05-04 05:53 47.57839 7.73207 16781 ft 391 kts 112°
2026-05-04 05:54 47.51720 7.99080 13177 ft 371 kts 112°
2026-05-04 05:55 47.50868 8.02655 12690 ft 365 kts 112°
2026-05-04 05:55 47.49820 8.06020 12187 ft 357 kts 121°
2026-05-04 05:55 47.48629 8.09222 11636 ft 353 kts 121°
2026-05-04 05:55 47.47467 8.12346 11126 ft 349 kts 121°
2026-05-04 05:56 47.46305 8.15467 10765 ft 340 kts 121°
2026-05-04 05:56 47.45192 8.18451 10667 ft 324 kts 121°
2026-05-04 05:56 47.44127 8.21315 10541 ft 312 kts 120°
2026-05-04 05:56 47.43101 8.24075 10395 ft 300 kts 121°
2026-05-04 05:57 47.42109 8.26733 10253 ft 290 kts 121°
2026-05-04 05:57 47.41148 8.29298 10113 ft 281 kts 120°
2026-05-04 05:57 47.40217 8.31781 9857 ft 275 kts 121°
2026-05-04 05:57 47.39278 8.34276 9436 ft 276 kts 120°
2026-05-04 05:58 47.38356 8.36730 8822 ft 277 kts 120°
2026-05-04 05:58 47.37432 8.39197 8304 ft 273 kts 119°
2026-05-04 05:58 47.36519 8.41629 7814 ft 268 kts 119°
2026-05-04 05:58 47.35624 8.44010 7334 ft 263 kts 120°
2026-05-04 05:59 47.34740 8.46356 6830 ft 259 kts 119°
2026-05-04 05:59 47.33874 8.48659 6363 ft 254 kts 119°
2026-05-04 05:59 47.33034 8.50888 6109 ft 239 kts 119°
2026-05-04 05:59 47.32256 8.52949 6061 ft 223 kts 119°
2026-05-04 06:00 47.31513 8.54913 5969 ft 214 kts 119°
2026-05-04 06:00 47.30802 8.56787 5886 ft 205 kts 120°
2026-05-04 06:00 47.30132 8.58558 5815 ft 192 kts 120°
2026-05-04 06:00 47.29721 8.60356 5684 ft 182 kts 92°
2026-05-04 06:01 47.29984 8.62089 5586 ft 172 kts 61°
2026-05-04 06:01 47.30759 8.63341 5471 ft 163 kts 33°
2026-05-04 06:03 47.37481 8.60528 3509 ft 134 kts 335°
2026-05-04 06:03 47.38312 8.59958 3271 ft 133 kts 335°
2026-05-04 06:05 47.44246 8.55867 1556 ft 128 kts 333°
2026-05-04 06:05 47.45555 8.54992 1399 ft 109 kts 335°
2026-05-04 06:05 47.46050 8.54641 1390 ft 37 kts 335°
2026-05-04 06:06 47.46278 8.54483 1383 ft 36 kts 334°
2026-05-04 06:06 47.46421 8.54439 1384 ft 21 kts 30°
2026-05-04 06:06 47.46461 8.54517 1385 ft 0 kts 64°
2026-05-04 06:08 47.46469 8.54542 1383 ft 6 kts 64°
2026-05-04 06:08 47.46473 8.54602 1383 ft 7 kts 107°
2026-05-04 06:08 47.46425 8.54661 1386 ft 12 kts 154°
2026-05-04 06:08 47.46338 8.54723 1382 ft 16 kts 155°
2026-05-04 06:09 47.46235 8.54792 1385 ft 17 kts 155°
2026-05-04 06:09 47.46124 8.54869 1388 ft 19 kts 155°
2026-05-04 06:11 47.45519 8.55607 1407 ft 9 kts 95°
2026-05-04 06:11 47.45507 8.55688 1411 ft 7 kts 139°
2026-05-04 06:13 47.45431 8.55691 1407 ft 0 kts 186°